Flag for U.S.A. Weather past 2 weeks in Spokane, Washington, U.S.A.

Now
29 °F

Low clouds.


Feels Like: 29 °F
Forecast: 28 / 33 °F
Wind: No wind

Location: Felts Field

Current Time: Dec 28, 2014 at 10:52:33 AM

Latest Report: Dec 28, 2014 at 9:53 AM


Visibility: 7 mi

Pressure: 30.11 "Hg

Humidity: 89%

Dew point: 26 °F

Location of SpokaneLocation

Historic Weather in Spokane — Graph

°F

Spokane temperature yesterday

Maximum temperature yesterday: 37 °F (at 6:53 PM)
Minimum temperature yesterday: 26 °F (at 12:53 AM)
Average temperature yesterday: 33 °F

Past Weeks' High & Low Weather Summary

 TemperatureHumidityPressure
High51 °F (Dec 21, 1:53 PM)93% (Dec 14, 8:53 PM)30.40 "Hg (Dec 14, 8:53 PM)
Low25 °F (Dec 26, 6:04 AM)49% (Dec 23, 3:53 PM)29.46 "Hg (Dec 21, 12:53 AM)
Average36 °F84%30.05 "Hg
* Reported Dec 13 9:53 AM — Dec 28 9:53 AM, Spokane, Weather by CustomWeather, © 2014

Note: Actual official high and low records may vary slightly from our data, if they occured in-between our weather recording intervals... More about our weather records

Advertising

Spokane weather history for previous 24 hours

 ConditionsComfort  
Time TempWeatherWind HumidityBarometerVisibility
9:53 AM
Dec 28
29 °FLow clouds.No wind89%30.11 "Hg7 mi
8:53 AM28 °FIce fog.5 mph93%30.10 "Hg4 mi
7:53 AM29 °FIce fog.7 mph89%30.07 "Hg5 mi
6:53 AM31 °FClear.7 mph89%30.04 "Hg10 mi
5:53 AM32 °FClear.6 mph85%30.03 "Hg10 mi
4:53 AM32 °FOvercast.5 mph88%30.01 "Hg10 mi
3:53 AM33 °FLight snow. Mostly cloudy.3 mph88%29.99 "Hg9 mi
2:53 AM33 °FLight snow. Fog.5 mph88%29.98 "Hg4 mi
2:01 AM33 °FLight snow. Fog.5 mph85%29.93 "Hg2 mi
1:03 AM34 °FMostly cloudy.7 mph82%29.92 "Hg10 mi
12:53 AM34 °FMostly cloudy.8 mph82%29.96 "Hg10 mi
11:53 PM
Dec 27
35 °FLight snow. Mostly cloudy.8 mph82%29.94 "Hg8 mi
10:53 PM35 °FOvercast.9 mph85%29.93 "Hg10 mi
9:53 PM36 °FLight rain. Low clouds.7 mph89%29.90 "Hg10 mi
8:53 PM36 °FLight rain. Overcast.5 mph89%29.91 "Hg9 mi
7:53 PM36 °FOvercast.5 mph89%29.92 "Hg10 mi
6:53 PM37 °FLight rain. Overcast.9 mph86%29.94 "Hg10 mi
5:53 PM36 °FLow clouds.7 mph89%29.96 "Hg10 mi
4:53 PM36 °FFog.5 mph85%29.96 "Hg5 mi
3:53 PM34 °FLight snow. Fog.No wind92%29.98 "Hg1 mi
3:00 PM34 °FLight snow. Fog.No wind88%29.96 "Hg1 mi
1:53 PM33 °FLight snow. Fog.3 mph92%30.05 "Hg1 mi
12:53 PM34 °FLight snow. Fog.3 mph88%30.09 "Hg1 mi
11:58 AM34 °FLight snow. Fog.No wind92%30.08 "Hg1 mi
10:53 AM34 °FLight snow. Fog.No wind88%30.18 "Hg2 mi
Weather by CustomWeather, © 2014

See weather overviewHow to use our weather pages